Theta_e
325 325 325 325 326 327 327 327 327 327 326 325 325 325 325 327 327 328 319 325 342 367 365 354 353 351 355 339 340 338 326 320 321 321 325 331 330 333 333 330 333 335 333 338 344
325 326 326 325 326 326 326 326 327 326 325 325 325 325 326 327 327 318 341 350 359 367 345 335 333 342 339 335 337 332 325 324 329 328 327 330 331 328 329 332 333 333 337 341 343
325 326 325 325 325 326 325 326 326 325 324 324 324 325 326 329 319 317 358 355 366 364 336 329 336 336 332 334 333 331 326 331 329 330 332 330 331 332 330 327 332 331 334 338 339
325 325 324 325 325 325 325 325 325 324 323 323 324 325 327 328 308 323 364 357 365 354 329 326 330 329 329 328 333 328 331 331 331 332 331 329 333 330 332 332 335 336 336 336 336
325 324 324 324 324 324 324 323 323 323 322 323 323 326 327 315 313 331 359 355 350 338 325 325 328 328 325 330 331 329 330 332 333 333 333 333 330 331 331 336 336 336 336 336 337
324 324 323 323 323 323 323 322 322 322 322 322 324 326 320 309 320 332 338 339 338 329 323 324 328 332 329 330 329 330 330 331 333 332 332 330 331 333 334 337 334 334 334 338 339
323 323 322 322 322 322 322 320 321 322 322 323 325 328 315 313 327 326 325 331 328 325 322 323 330 329 330 329 332 331 325 329 331 332 329 333 328 328 337 337 333 332 335 338 340
322 322 321 321 321 320 320 319 321 327 325 325 327 326 313 318 322 323 325 323 325 324 322 324 330 331 330 334 329 324 325 320 325 328 330 328 322 330 338 336 332 333 335 337 340
321 321 320 320 319 318 318 319 324 328 327 328 327 318 311 321 320 323 325 321 323 323 323 323 327 330 330 324 321 321 316 316 319 328 327 326 323 332 337 335 333 333 336 337 340
319 319 318 318 317 317 316 318 323 327 330 331 326 319 318 316 321 323 325 321 319 319 319 320 324 323 324 322 313 314 315 316 316 323 324 323 323 330 334 334 333 334 335 338 339
318 318 317 317 316 315 320 322 321 320 321 316 318 315 316 322 325 321 323 320 319 318 314 318 316 316 321 322 321 318 316 314 317 323 323 322 323 328 333 334 334 334 334 335 338
317 317 317 316 315 315 322 320 319 320 314 319 319 318 320 321 316 319 322 315 314 310 315 313 312 320 324 323 321 318 316 315 318 323 323 322 321 327 331 333 335 335 335 336 337
317 316 316 315 315 320 322 320 325 325 314 315 317 317 317 319 315 317 318 316 312 310 311 310 314 319 319 320 318 318 316 315 314 317 322 319 319 323 329 333 335 336 338 339 337
316 316 315 313 317 322 322 323 327 325 310 313 314 318 318 319 313 321 319 316 311 309 310 311 314 312 314 316 319 315 319 316 314 313 310 316 311 322 326 329 332 334 336 336 339
316 316 314 312 319 320 322 326 326 320 300 314 313 323 319 315 316 316 319 315 310 309 310 308 309 310 311 315 320 316 318 316 314 314 312 314 312 320 325 324 328 333 335 337 339
315 315 314 318 321 322 326 327 320 307 298 310 314 313 313 314 313 315 314 317 315 310 311 310 312 312 313 316 317 319 317 317 317 315 307 312 312 314 319 321 325 330 334 336 338
313 312 313 319 321 325 326 321 307 301 310 309 309 312 311 310 311 312 310 309 307 303 304 308 308 311 312 310 314 315 311 305 304 306 304 314 312 315 320 322 324 325 333 336 338
311 310 315 320 325 325 324 312 301 303 310 314 309 311 308 311 311 311 309 307 310 309 307 303 301 309 312 310 309 310 310 305 300 303 305 313 307 316 321 323 328 330 334 337 338
310 325 325 328 327 326 317 305 306 305 311 308 310 309 309 310 309 310 309 308 309 311 305 304 304 311 311 313 313 310 308 313 308 309 306 310 312 317 321 324 328 331 333 335 337
318 321 327 327 327 323 312 303 307 310 310 310 307 309 308 309 307 308 308 311 310 312 314 309 304 309 311 311 312 312 314 306 308 301 300 305 307 309 316 317 325 329 331 335 338
319 317 324 326 322 315 307 308 309 311 311 310 309 307 309 308 310 308 308 311 313 312 314 311 308 307 309 308 308 308 308 310 311 308 303 302 306 316 315 319 324 330 332 333 334
318 312 325 328 313 315 310 310 303 311 313 313 313 311 310 310 309 308 308 311 314 314 309 312 309 305 306 312 313 313 310 311 306 305 307 306 305 317 322 326 330 332 333 338 340
312 318 327 324 310 309 312 310 310 312 313 313 311 312 313 311 309 311 311 314 314 313 311 312 307 303 305 307 310 309 311 312 312 311 306 303 306 325 327 328 332 333 338 342 341
314 311 319 319 320 313 311 311 311 316 315 316 316 316 314 313 315 313 312 312 312 314 326 316 309 306 303 306 310 307 310 311 310 306 306 307 309 319 323 326 332 333 340 343 342
317 313 316 311 313 315 315 313 310 310 316 318 316 314 313 311 313 312 314 318 312 316 313 313 307 309 309 309 309 309 309 309 308 310 307 309 310 315 320 327 332 336 342 342 342
312 312 317 317 315 314 309 313 311 313 314 314 314 315 317 314 316 314 317 318 312 314 312 314 308 310 307 310 312 309 312 310 310 310 310 311 311 324 330 334 333 337 341 342 343
315 317 314 307 312 312 312 313 313 316 317 318 317 316 316 317 320 321 322 321 320 315 312 312 310 309 306 312 312 307 312 315 312 313 312 309 317 328 330 331 334 338 342 344 347
Wind_Speed
14 14 16 18 19 20 20 20 20 18 19 19 19 17 16 19 22 8 7 4 5 14 6 8 6 6 8 3 1 4 3 9 7 8 8 10 8 5 9 14 7 3 15 21 21
15 16 16 17 19 20 21 20 20 19 19 18 18 18 14 16 8 9 7 6 8 14 9 7 2 7 5 3 1 5 8 8 4 5 9 7 6 10 10 11 9 12 18 23 22
16 16 17 18 18 20 21 21 20 20 19 18 18 17 15 15 7 4 9 5 9 12 6 4 3 6 5 5 5 9 8 8 6 5 7 8 8 7 10 6 10 18 23 22 20
17 18 18 19 20 19 21 21 21 20 19 17 16 17 16 6 6 7 9 3 5 9 9 5 4 2 4 7 5 11 7 6 7 4 7 5 7 7 4 6 11 19 23 20 19
18 19 19 20 21 22 21 21 21 19 17 15 13 14 9 8 2 6 6 4 10 8 11 6 4 4 8 6 7 11 8 5 7 6 7 4 4 4 6 10 17 20 20 20 17
17 18 19 21 22 23 23 22 21 19 15 11 10 12 7 9 4 4 4 6 8 7 6 6 6 5 7 6 6 3 7 9 6 7 5 3 6 7 8 14 18 20 20 18 17
17 18 20 21 22 23 24 23 21 15 10 8 6 6 7 5 3 2 1 4 4 6 6 2 5 5 1 8 4 6 8 9 8 7 5 7 8 2 14 16 19 19 18 17 15
18 19 21 22 22 23 23 23 17 10 4 4 5 5 5 2 4 7 4 6 4 5 5 4 3 2 5 7 6 4 4 6 5 7 5 8 8 8 15 16 19 19 17 16 16
18 19 21 22 24 24 23 19 7 3 3 4 7 5 2 3 6 3 6 4 7 6 4 3 5 3 6 9 9 4 8 3 6 5 3 6 9 12 14 16 17 17 17 16 16
19 20 22 23 25 24 24 8 1 5 5 5 4 7 5 4 1 1 4 6 7 9 9 10 9 10 11 9 2 3 4 3 6 4 4 4 7 13 15 15 16 17 18 17 17
19 20 21 24 25 26 15 6 6 8 8 10 6 5 1 3 3 7 6 10 8 13 14 13 12 15 16 11 4 1 2 2 6 4 5 4 5 13 16 16 16 17 17 19 18
19 21 22 25 25 25 9 4 6 6 9 5 9 11 9 4 5 9 8 13 11 14 14 9 17 16 15 12 9 8 6 3 6 3 5 2 7 10 18 19 18 17 18 18 18
19 20 21 24 28 10 6 6 5 6 8 3 3 4 4 10 7 11 15 17 13 17 15 17 12 15 9 11 14 13 11 2 6 3 6 8 8 8 15 15 17 17 17 17 18
18 19 19 28 9 7 1 2 9 5 7 8 5 5 7 6 8 4 14 14 8 15 13 12 5 9 18 19 16 17 3 4 3 7 4 3 1 10 11 15 17 18 19 18 18
19 17 19 11 11 5 6 8 5 6 6 5 6 5 6 10 11 9 10 11 13 10 9 11 10 14 19 19 15 15 0 3 3 11 7 10 8 11 9 11 15 19 20 20 21
19 16 14 4 6 8 8 10 5 9 2 5 4 7 12 10 6 11 13 8 5 8 14 9 1 12 15 14 7 8 8 10 9 10 11 6 8 10 10 6 5 10 20 22 21
21 18 9 5 3 6 9 6 8 7 3 5 2 8 12 10 9 14 16 16 11 13 13 15 10 6 7 11 10 12 15 12 12 12 10 6 7 10 6 5 1 3 16 20 20
25 21 8 6 5 8 6 7 7 3 0 3 1 5 11 10 9 13 14 15 15 12 8 13 16 14 13 16 13 17 18 11 10 11 8 6 8 3 3 3 3 3 12 19 20
26 3 4 3 3 5 7 9 3 1 2 4 4 9 10 10 6 11 12 15 15 14 11 12 14 9 7 12 12 15 16 16 18 3 9 4 5 10 3 3 2 6 8 16 18
7 5 1 5 6 7 8 8 2 2 4 4 4 3 8 12 12 11 12 11 16 17 14 4 11 8 12 7 7 11 16 11 10 12 10 9 6 9 7 6 5 8 8 12 14
6 5 6 5 5 7 9 5 3 4 4 4 2 3 2 4 12 12 10 7 15 19 17 10 10 10 8 14 15 10 10 12 10 7 9 9 6 7 5 4 5 7 5 4 8
5 5 5 4 7 3 8 4 2 5 5 5 6 7 5 3 9 11 11 8 10 14 19 18 8 11 16 10 8 15 19 16 11 13 10 11 10 5 3 5 6 6 6 4 3
6 3 4 5 6 8 4 6 5 5 5 3 5 6 1 4 5 10 6 3 11 16 16 15 11 9 12 11 8 14 14 13 15 14 11 8 9 7 6 6 7 7 6 7 6
6 4 5 6 3 8 5 6 5 4 8 6 8 7 7 8 7 2 3 3 7 15 4 13 16 14 11 13 13 20 14 15 16 12 12 10 13 11 7 8 10 8 6 9 10
2 4 5 4 7 6 5 1 6 5 5 5 5 8 7 6 5 4 2 8 6 7 6 16 16 14 3 4 5 8 14 14 16 15 12 6 12 15 4 7 10 9 8 11 14
5 5 3 4 4 8 7 9 9 5 4 6 6 4 7 9 8 10 7 3 4 7 16 17 9 11 11 6 8 8 7 10 16 16 9 14 11 9 5 11 10 10 11 11 14
2 1 4 4 6 6 6 8 6 2 5 6 5 10 9 7 11 13 14 13 14 8 13 15 9 9 12 9 6 10 12 11 11 11 14 14 4 6 10 13 12 13 13 14 15
Wind_Direction
356 347 339 335 331 327 325 323 324 328 329 327 326 324 324 320 307 216 247 17 86 158 208 160 210 215 211 190 257 263 100 70 62 57 117 128 106 70 105 134 94 87 143 142 146
345 340 335 332 329 327 323 321 321 324 327 324 322 320 323 322 286 253 14 311 143 167 187 221 162 185 150 104 64 338 47 61 44 84 128 144 118 127 144 125 115 119 113 140 155
342 337 334 331 328 324 321 318 319 321 322 321 318 316 317 309 268 124 4 317 157 194 273 272 270 279 117 67 29 31 88 121 89 64 140 128 139 148 147 166 138 144 142 154 162
338 335 332 330 327 323 320 318 317 320 318 316 315 314 314 254 234 49 349 270 178 258 258 232 253 266 60 80 79 98 97 104 117 130 154 164 134 145 65 64 128 147 150 159 171
334 332 331 328 325 325 321 319 318 313 311 309 310 313 287 229 274 35 304 142 193 242 256 276 293 323 56 87 112 106 109 94 139 123 136 145 163 102 106 115 128 145 155 166 175
332 330 328 326 324 324 321 322 316 310 301 298 302 303 258 244 51 54 21 169 213 234 245 270 3 13 71 79 32 112 117 118 136 126 116 180 135 157 128 136 143 156 165 168 174
332 329 327 325 325 324 322 321 318 313 293 283 283 280 252 290 36 114 335 196 207 251 271 282 327 305 300 124 110 154 137 141 148 153 135 128 156 175 145 155 155 167 171 172 175
332 330 327 326 324 324 323 320 317 318 286 242 235 252 273 65 325 255 199 194 212 216 279 315 283 113 317 127 154 150 175 148 139 191 149 230 113 142 158 167 165 171 172 176 181
332 329 326 326 324 324 325 319 304 18 119 179 233 269 193 150 225 206 212 218 175 188 194 207 244 273 187 234 179 198 93 56 133 188 162 248 115 156 175 176 172 177 179 184 185
331 330 328 327 324 323 321 286 298 218 209 240 266 242 198 150 93 217 187 239 192 170 168 193 208 220 232 235 57 83 109 118 30 91 231 215 125 167 181 190 179 184 184 191 195
333 330 329 328 324 323 319 218 227 178 219 291 333 318 122 334 211 202 186 195 199 206 202 198 212 219 217 227 22 301 318 22 86 36 264 243 247 169 182 197 190 188 190 195 200
332 331 329 327 322 317 278 23 48 358 299 262 262 265 266 306 217 190 195 202 204 204 210 179 223 219 233 228 228 237 266 115 128 71 266 212 261 186 181 197 199 196 191 198 197
329 329 330 325 319 297 348 63 6 302 258 161 210 262 199 203 230 172 197 204 208 214 204 226 214 226 233 213 234 238 257 54 349 334 241 290 227 179 188 198 201 205 203 198 198
327 329 333 326 295 348 153 66 323 243 265 121 163 123 167 215 216 167 213 188 206 217 213 241 157 233 225 231 225 248 115 188 244 277 328 322 307 175 167 202 205 207 201 204 202
325 328 331 324 319 282 35 322 324 228 250 89 104 97 159 220 114 167 181 206 207 203 199 197 209 220 227 226 225 256 232 217 239 264 261 190 261 106 158 193 206 209 209 209 194
317 321 332 219 240 277 310 307 228 229 161 127 123 171 179 196 175 134 176 224 296 210 225 256 263 239 236 235 228 246 232 218 240 269 266 212 257 167 151 90 156 193 202 206 204
315 314 293 296 337 332 300 239 236 255 133 120 86 171 203 172 164 176 186 194 196 201 199 204 196 189 238 215 215 209 226 232 224 225 245 107 235 271 54 49 145 225 188 198 201
320 311 159 243 272 301 262 230 251 55 14 119 237 203 206 176 168 191 187 203 214 246 231 203 203 198 188 223 208 217 229 231 216 242 240 139 237 210 71 352 350 208 177 188 194
311 261 235 155 229 235 234 223 326 138 9 331 181 204 187 202 248 195 209 219 204 221 241 210 229 173 198 208 235 189 229 248 273 224 284 244 190 271 153 119 87 137 154 181 191
310 288 141 342 192 219 233 258 260 287 313 266 270 259 200 180 203 202 192 219 224 207 243 194 236 183 175 197 215 263 212 207 233 258 241 241 230 280 199 293 145 153 179 169 190
256 256 63 125 233 217 232 228 253 222 269 288 267 263 238 195 222 196 184 211 210 196 215 234 246 153 168 207 192 193 208 236 284 241 279 257 244 264 286 312 184 144 179 179 204
289 227 126 270 219 223 228 226 20 255 210 272 285 275 260 207 215 223 220 245 194 185 197 217 234 187 206 194 269 234 217 217 225 216 240 288 295 16 111 148 161 131 132 126 187
316 312 149 263 233 208 178 228 260 245 232 239 260 244 258 276 250 224 234 349 180 183 201 194 231 215 173 180 189 231 231 258 245 248 271 260 273 134 143 160 143 141 120 137 134
274 224 155 219 301 291 210 204 212 191 264 264 281 270 266 246 214 260 225 110 211 224 329 189 224 235 210 215 202 206 215 227 248 236 243 232 266 168 167 167 157 141 136 121 121
239 68 359 176 199 249 253 6 216 221 206 246 235 250 306 273 246 190 181 317 172 200 224 224 232 221 234 321 268 229 200 211 229 238 259 278 230 241 65 174 160 139 133 129 133
318 327 328 282 239 237 196 231 250 222 242 183 255 343 302 284 322 306 327 320 4 179 210 216 220 193 233 227 243 226 225 222 222 249 259 269 275 82 105 143 153 150 138 139 129
289 234 265 133 217 233 210 242 243 265 206 267 313 313 293 348 333 305 298 287 274 287 205 219 208 200 216 195 214 229 210 215 225 230 235 237 340 134 160 171 160 153 146 134 124